EW9530 Weather Reports


Display with metric or nautical units.
time (UTC)temp
F
wind
direction
speed
MPH
gust
MPH
rain 1hr
in
rain 24hr
in
rain mn
in
humidity
%
barometer
mb
20260506050149 45 5 2.0 5.0 0.00 0.32 0.00 95 1013.9
20260506044650 46 312 0.0 0.0 0.00 0.32 0.00 95 1013.7
20260506043154 46 10 0.0 0.0 0.00 0.32 0.00 95 1013.6
20260506041652 46 10 0.0 0.0 0.00 0.32 0.00 95 1013.6
20260506040149 46 10 0.0 3.0 0.00 0.32 0.00 95 1013.4
20260506034651 46 42 2.0 6.0 0.00 0.32 0.00 95 1013.3
20260506033155 47 26 3.0 8.0 0.00 0.32 0.00 95 1013.2
20260506031650 47 15 2.0 6.0 0.00 0.32 0.00 95 1013.2
20260506024652 48 9 3.0 6.0 0.00 0.32 0.00 95 1013.1
20260506023158 48 48 2.0 5.0 0.00 0.32 0.00 95 1013.1
20260506021651 49 346 1.0 4.0 0.00 0.32 0.00 95 1013.0
20260506020149 49 350 0.0 5.0 0.00 0.32 0.00 95 1012.9
20260506014652 49 11 2.0 5.0 0.00 0.32 0.00 95 1012.9
20260506013155 49 10 1.0 8.0 0.00 0.32 0.00 95 1012.8
20260506011651 48 16 0.0 3.0 0.00 0.32 0.00 94 1012.8
20260506010203 49 11 0.0 3.0 0.00 0.32 0.00 94 1012.9
20260506004650 49 11 1.0 4.0 0.00 0.32 0.00 94 1013.1
20260506003154 49 36 3.0 8.0 0.00 0.32 0.00 94 1013.2
20260506001651 49 39 4.0 6.0 0.00 0.32 0.00 94 1013.3
20260506000151 49 42 1.0 4.0 0.00 0.32 0.00 94 1013.3
20260505234651 50 40 0.0 0.0 0.00 0.32 0.00 94 1013.3
20260505233156 50 40 0.0 4.0 0.00 0.32 0.00 94 1013.2
20260505231652 50 39 1.0 5.0 0.00 0.32 0.00 94 1013.2
20260505224654 51 63 0.0 0.0 0.00 0.32 0.00 94 1013.1
20260505223155 51 63 0.0 4.0 0.00 0.32 0.00 94 1013.1
20260505221652 51 46 1.0 5.0 0.00 0.32 0.00 93 1013.4
20260505214651 52 45 0.0 0.0 0.00 0.32 0.32 93 1013.6
20260505213156 52 45 0.0 0.0 0.00 0.32 0.32 93 1013.6
20260505211651 52 45 0.0 0.0 0.00 0.32 0.32 93 1013.5
20260505204647 52 48 0.0 3.0 0.00 0.33 0.32 93 1013.3
20260505203157 53 267 0.0 0.0 0.00 0.33 0.32 93 1013.1
20260505201651 53 267 0.0 0.0 0.00 0.33 0.32 92 1012.8
20260505194651 53 184 0.0 3.0 0.00 0.35 0.32 91 1012.3
20260505193157 54 184 0.0 0.0 0.00 0.35 0.32 91 1012.1
20260505191608 54 223 0.0 0.0 0.00 0.35 0.32 90 1011.8
20260505190148 55 246 0.0 2.0 0.00 0.35 0.32 90 1011.9
20260505184651 55 46 0.0 0.0 0.00 0.39 0.32 89 1012.0
20260505183138 56 46 0.0 2.0 0.00 0.39 0.32 88 1012.1
20260505181652 56 329 0.0 6.0 0.00 0.39 0.32 87 1012.0
20260505174653 56 133 0.0 4.0 0.00 0.39 0.32 89 1011.4
20260505173139 56 157 0.0 2.0 0.00 0.39 0.32 88 1011.6
20260505171651 56 157 0.0 6.0 0.00 0.39 0.32 86 1011.6
20260505164652 56 158 0.0 7.0 0.06 0.39 0.32 88 1011.5
20260505163138 56 96 0.0 10.0 0.09 0.39 0.32 87 1011.5
20260505161654 56 132 0.0 7.0 0.10 0.39 0.32 88 1011.5
20260505160151 56 266 1.0 9.0 0.10 0.37 0.31 86 1011.5
20260505153156 57 140 0.0 5.0 0.17 0.28 0.23 89 1011.7
20260505151651 58 92 0.0 3.0 0.17 0.28 0.22 87 1011.3
20260505150118 59 214 0.0 6.0 0.14 0.26 0.20 83 1011.4
20260505124654 62 259 0.0 5.0 0.05 0.17 0.06 85 1012.3
20260505123155 63 264 2.0 4.0 0.05 0.17 0.06 83 1012.4
20260505121655 64 291 0.0 1.0 0.01 0.13 0.01 76 1012.3
20260505120149 64 292 0.0 1.0 0.01 0.13 0.01 77 1012.4
20260505114653 63 295 0.0 3.0 0.01 0.13 0.01 77 1012.5
20260505113155 63 47 0.0 3.0 0.01 0.13 0.01 75 1012.5
20260505111651 64 322 0.0 3.0 0.00 0.12 0.00 73 1012.8
20260505101652 60 355 5.0 8.0 0.00 0.12 0.00 76 1013.2
20260505100152 61 26 3.0 9.0 0.00 0.12 0.00 78 1013.2
20260505094653 60 5 5.0 11.0 0.00 0.12 0.00 78 1013.3
20260505093150 58 294 3.0 8.0 0.00 0.12 0.00 79 1013.5
20260505090151 57 20 2.0 5.0 0.00 0.12 0.00 82 1013.8
20260505084651 55 14 2.0 8.0 0.00 0.12 0.00 85 1014.1
20260505083157 55 13 3.0 8.0 0.00 0.12 0.00 86 1014.2
20260505080150 54 306 7.0 11.0 0.00 0.12 0.00 89 1014.1
20260505074652 53 303 5.0 11.0 0.00 0.12 0.00 93 1014.2
20260505073106 52 13 4.0 8.0 0.00 0.12 0.00 95 1014.3
20260505071653 51 348 2.0 6.0 0.00 0.12 0.00 95 1014.4
20260505064652 49 355 3.0 8.0 0.00 0.12 0.00 95 1014.4
20260505063137 49 335 3.0 9.0 0.00 0.12 0.00 95 1014.4
20260505061651 48 323 4.0 9.0 0.00 0.12 0.00 95 1014.4